Retour au catalogue

COSMOS 1861

ActifNavigationPO
NORAD 18129·PAYLOAD·🇷🇺 Russia

Lancé Jun 23, 1987 depuis Plesetsk Cosmodrome

Loading…

Prochains Passages (prochaines 24 heures)

TLE

FraisSource: Space-Track

Époque: Sep 14, 2026, 00:36 UTC

1 18129U 87054A   26257.02507191  .00000029  00000-0  14606-4 0  9994
2 18129  82.9211 257.0532 0013005  69.5383 313.1011 13.73272846965736

Suivez COSMOS 1861 en temps réel avec AllMySat

Download on the App Store